APRIZESAT 7

Last updated on Sun Jun 21 2026 00:03:42 GMT+0000 (Coordinated Universal Time)

1 39416U 13066A 26171.44113595 .00000692 00000+0 73936-4 0 9996 2 39416 97.7709 124.6143 0035260 198.2119 161.7840 14.91569653681711
UTC large
Height (km)
Speed (km/s)
/
Latitude / Longitude
Inclination (degrees)
Orbital Period (minutes)
Azimuth
Elevation
Range (km)
Doppler Factor

Next 0 passes for location: London (51.5072 / 0.1276)

No passes found over London.
APRIZESAT 7